ARTEMIS

Last updated on Fri Nov 24 2017 00:18:48 GMT+0000 (Coordinated Universal Time)

1 26863U 01029A 17327.71993767 .00000079 00000-0 00000+0 0 9991 2 26863 12.8696 31.4100 0006800 124.5137 230.7111 0.99288277 61032

Satellite not in orbit

ARTEMIS